Home > Time Zones > World Clock > Weather > Ghana > Accra > Past weeks

Flag for Ghana Weather past 2 weeks in Accra, Ghana

Now
77 °F

Clear.


Feels Like: 78 °F
Forecast: N/A
Wind: 6 mph from West

Location: Accra Airport

Current Time: Jul 7, 2015 at 10:49:50 PM

Latest Report: Jul 7, 2015 at 10:00 PM


Visibility: 10 mi

Pressure: 29.92 "Hg

Humidity: 89%

Dew point: 73 °F

Location of AccraLocation

Historic Weather in Accra — Graph

°F

Accra temperature yesterday

Maximum temperature yesterday: 82 °F (at 3:00 PM)
Minimum temperature yesterday: 77 °F (at 12:00 AM)
Average temperature yesterday: 78 °F

Past Weeks' High & Low Weather Summary

 TemperatureHumidityPressure
High144 °F (Jun 29, 10:00 PM)100% (Jul 2, 8:00 PM)30.09 "Hg (Jul 2, 8:00 PM)
Low72 °F (Jul 2, 8:00 PM)13% (Jun 29, 10:00 PM)29.86 "Hg (Jul 2, 3:00 PM)
Average79 °F87%29.97 "Hg
* Reported Jun 22 9:00 PM — Jul 7 9:00 PM, Accra, Weather by CustomWeather, © 2015

Note: Actual official high and low records may vary slightly from our data, if they occured in-between our weather recording intervals... More about our weather records

Advertising

Accra weather history for previous 24 hours

 ConditionsComfort  
Time TempWeatherWind HumidityBarometerVisibility
9:00 PM
Tue, Jul 7
77 °FClear.6 mph89%29.89 "Hg10 mi
8:00 PM77 °FClear.8 mph89%29.89 "Hg10 mi
7:00 PM77 °FPassing clouds.8 mph94%29.86 "HgN/A
5:00 PM79 °FSunny.12 mph84%29.86 "Hg10 mi
4:00 PM81 °FSunny.10 mph79%29.86 "Hg10 mi
3:00 PM81 °FPassing clouds.10 mph84%29.89 "HgN/A
2:00 PM82 °FPassing clouds.9 mph79%29.89 "HgN/A
1:00 PM82 °FPartly sunny.7 mph79%29.92 "HgN/A
12:00 PM84 °FScattered clouds.6 mph70%29.92 "HgN/A
11:00 AM82 °FScattered clouds.6 mph74%29.95 "HgN/A
10:00 AM81 °FPartly sunny.6 mph79%29.98 "HgN/A
9:00 AM81 °FPartly sunny.8 mph79%29.98 "HgN/A
8:00 AM77 °FPassing clouds.7 mph89%29.95 "HgN/A
7:00 AM75 °FPassing clouds.7 mph94%29.92 "Hg4 mi
6:00 AM75 °FPassing clouds.7 mph94%29.92 "Hg5 mi
5:02 AM75 °FClear.6 mph100%29.89 "Hg10 mi
4:00 AM75 °FPartly cloudy.7 mph94%29.89 "HgN/A
3:00 AM75 °FClear.6 mph100%29.89 "Hg10 mi
2:00 AM77 °FClear.5 mph89%29.89 "Hg10 mi
1:00 AM77 °FPassing clouds.5 mph94%29.89 "HgN/A
12:00 AM77 °FPassing clouds.6 mph94%29.89 "HgN/A
11:00 PM
Mon, Jul 6
77 °FPassing clouds.3 mph94%29.92 "HgN/A
10:00 PM77 °FClear.7 mph89%29.92 "Hg10 mi
Weather by CustomWeather, © 2015

See weather overviewHow to use our weather pages